Total_Precipitation_Accumulation
2.40 2.51 2.53 2.50 2.59 2.57 2.74 3.02 3.25 3.10 2.78 2.62 2.49 2.41 2.50 2.60 2.89 2.62 2.50 2.49 2.22 2.06 1.99 2.02 2.12 2.18 2.35 2.62 2.78 2.85 2.88 2.96 3.00 3.05 3.13 3.28 3.45 3.55
2.20 2.26 2.26 2.24 2.45 2.54 2.58 2.77 3.05 3.21 3.08 2.70 2.51 2.31 2.39 2.39 2.81 2.68 2.68 2.76 2.38 2.08 1.98 2.05 2.11 2.11 2.15 2.22 2.37 2.51 2.61 2.67 2.69 2.73 2.83 2.96 3.09 3.30
2.03 1.99 2.00 2.13 2.27 2.28 2.40 2.53 2.80 3.12 3.22 2.91 2.64 2.50 2.56 2.64 2.76 2.77 2.61 2.46 2.27 2.25 2.07 2.01 2.19 2.37 2.24 2.07 2.02 2.06 2.23 2.37 2.47 2.50 2.57 2.70 2.79 2.92
1.84 1.88 1.74 1.82 2.03 2.13 2.26 2.34 2.52 2.77 2.95 2.89 2.69 2.63 2.60 2.60 2.77 2.78 2.52 2.23 2.05 2.18 2.05 1.97 2.12 2.50 2.56 2.28 2.09 1.95 1.91 1.97 2.08 2.20 2.29 2.38 2.50 2.67
1.74 1.75 1.70 1.84 1.93 2.08 2.19 2.24 2.42 2.49 2.78 2.77 2.56 2.57 2.64 2.61 2.75 2.61 2.38 2.32 1.85 1.85 1.88 1.90 1.98 2.56 2.97 2.75 2.43 2.18 1.93 1.78 1.72 1.84 1.99 2.13 2.17 2.25
1.59 1.61 1.62 1.71 1.84 2.08 2.15 2.31 2.50 2.64 2.78 2.79 2.65 2.63 2.69 2.78 2.82 2.81 2.62 2.40 2.05 1.63 1.74 1.82 1.97 2.42 3.02 3.19 2.80 2.52 2.24 1.99 1.78 1.69 1.74 1.78 1.82 1.83
1.56 1.52 1.49 1.52 1.67 1.83 1.89 2.18 2.48 2.67 2.73 2.78 2.71 2.66 2.64 2.80 2.66 2.52 2.51 2.38 2.12 1.84 1.88 1.74 1.94 2.54 3.18 3.52 3.30 2.71 2.27 2.07 1.91 1.74 1.64 1.60 1.58 1.61
1.61 1.58 1.40 1.36 1.40 1.46 1.53 1.67 2.01 2.31 2.52 2.66 2.63 2.57 2.48 2.52 2.54 2.44 2.45 2.47 2.30 1.90 1.93 1.98 2.20 2.99 3.52 3.74 3.67 2.86 2.18 1.96 1.88 1.79 1.70 1.60 1.51 1.46
1.61 1.65 1.46 1.30 1.41 1.42 1.40 1.38 1.52 1.79 2.15 2.46 2.56 2.38 2.42 2.48 2.60 2.58 2.46 2.44 2.36 2.04 2.04 2.12 2.39 3.02 3.39 3.76 3.74 2.98 2.36 2.01 1.93 1.87 1.77 1.67 1.58 1.48
1.49 1.52 1.61 1.58 1.38 1.39 1.49 1.56 1.65 1.76 1.87 1.97 2.24 2.36 2.40 2.39 2.40 2.42 2.50 2.51 2.36 2.07 2.09 2.33 2.39 2.76 3.12 3.63 3.60 2.93 2.44 2.14 1.98 1.88 1.76 1.62 1.53 1.50
1.30 1.26 1.31 1.35 1.27 1.30 1.51 1.77 1.94 2.10 1.92 1.92 2.04 2.24 2.30 2.17 2.07 2.22 2.54 2.66 2.42 2.09 1.98 2.22 2.32 2.49 2.85 3.18 3.03 2.70 2.36 2.14 1.95 1.79 1.69 1.62 1.54 1.52
1.23 1.22 1.23 1.20 1.18 1.26 1.50 1.90 2.11 2.18 1.97 1.84 2.00 2.18 2.10 2.03 2.08 2.21 2.49 2.58 2.41 2.27 1.96 2.10 2.20 2.32 2.72 2.79 2.56 2.28 2.18 2.19 2.04 1.88 1.75 1.62 1.53 1.44
1.10 1.17 1.19 1.17 1.11 1.20 1.44 1.75 1.98 2.04 1.98 1.98 2.07 2.16 2.19 2.20 2.11 2.14 2.28 2.33 2.36 2.24 1.85 2.07 2.29 2.36 2.57 2.61 2.46 2.29 2.09 2.06 2.02 2.09 2.06 1.81 1.62 1.51
1.12 1.12 1.15 1.16 1.13 1.25 1.36 1.66 1.95 2.11 2.02 1.92 1.90 1.94 1.96 1.97 1.92 1.84 1.87 1.93 2.00 2.04 1.95 2.11 2.42 2.53 2.49 2.35 2.38 2.27 2.20 2.14 2.05 2.09 2.19 2.09 1.87 1.81
0.98 1.10 1.08 1.04 1.20 1.47 1.62 1.79 2.02 2.19 2.10 1.89 1.80 1.73 1.72 1.74 1.69 1.72 1.74 1.76 1.71 1.63 1.53 1.77 2.14 2.36 2.41 2.32 2.27 2.22 2.37 2.51 2.35 2.29 2.22 2.08 1.95 1.82
0.81 1.02 1.17 1.23 1.38 1.68 1.92 2.03 2.10 2.08 1.94 1.79 1.70 1.64 1.61 1.62 1.65 1.61 1.70 1.71 1.76 1.72 1.56 1.59 1.84 2.13 2.26 2.17 2.21 2.26 2.33 2.73 2.70 2.46 2.34 2.27 2.10 1.93
0.81 1.01 1.19 1.30 1.50 1.73 1.88 1.90 1.90 1.86 1.81 1.71 1.62 1.58 1.59 1.60 1.62 1.61 1.64 1.60 1.65 1.64 1.67 1.69 1.77 1.91 1.97 2.02 2.15 2.17 2.31 2.51 2.53 2.38 2.34 2.40 2.34 2.13
0.87 1.11 1.30 1.40 1.57 1.70 1.81 1.79 1.71 1.69 1.67 1.65 1.63 1.56 1.53 1.55 1.61 1.61 1.57 1.55 1.58 1.52 1.49 1.54 1.60 1.69 1.80 1.91 2.01 2.08 2.12 2.27 2.32 2.26 2.14 2.23 2.38 2.28
0.92 1.16 1.36 1.48 1.59 1.63 1.66 1.64 1.61 1.56 1.49 1.50 1.50 1.47 1.46 1.47 1.51 1.53 1.49 1.47 1.48 1.43 1.36 1.40 1.46 1.55 1.68 1.90 1.96 1.97 1.98 2.04 2.12 2.10 2.03 2.05 2.22 2.27
0.99 1.18 1.38 1.45 1.49 1.54 1.54 1.52 1.50 1.45 1.41 1.43 1.50 1.45 1.38 1.35 1.32 1.33 1.36 1.33 1.31 1.27 1.30 1.32 1.33 1.45 1.62 1.79 2.02 2.04 1.86 1.75 1.82 1.91 1.86 1.89 2.05 2.05
0.97 1.09 1.19 1.29 1.36 1.43 1.43 1.41 1.40 1.37 1.32 1.33 1.36 1.36 1.31 1.24 1.17 1.13 1.15 1.10 1.09 1.13 1.22 1.30 1.29 1.21 1.26 1.45 1.71 1.82 1.80 1.79 1.74 1.71 1.67 1.79 1.81 1.69
0.93 0.99 1.03 1.05 1.13 1.22 1.22 1.17 1.20 1.20 1.19 1.21 1.21 1.23 1.26 1.21 1.11 1.06 1.04 1.05 1.07 1.08 1.11 1.14 1.10 1.10 1.21 1.43 1.61 1.70 1.67 1.55 1.54 1.50 1.47 1.47 1.47 1.58
0.85 0.86 0.89 0.91 0.90 0.93 0.99 1.01 1.06 1.14 1.18 1.18 1.16 1.14 1.12 1.08 1.02 0.98 1.00 1.00 0.97 0.95 1.01 1.10 1.11 1.14 1.22 1.34 1.49 1.51 1.43 1.38 1.37 1.38 1.42 1.43 1.33 1.36